Mexico, MO

7:30 AM CDT on April 25, 2017 (GMT -0500)
Near Lakeview Lake | | Change Station

Elev 817 ft 39.16 °N, 91.89 °W | Updated 4 seconds ago

Partly Cloudy
Partly Cloudy
55.3 °F
Feels Like 55.3 °F
N
0.0
Wind Variable Wind from East
Gusts 3.0 mph

Today
High -- | Low -- °F
--% Chance of Precip.
Yesterday
High -- | Low -- °F
Precip. -- in
Pressure 29.60 in
Visibility 10.0 miles
Clouds Clear
Dew Point 47 °F
Humidity 73%
Rainfall 0.00 in
Snow Depth Not available.
6:16 AM 7:55 PM
Waning Crescent, 1% visible
METAR KCOU 251154Z 14006KT 10SM CLR 13/07 A2962 RMK AO2 SLP024 T01280072 10139 20117 55005
Pressure 29.60 in
Visibility 10.0 miles
Clouds Clear
Dew Point 47 °F
Humidity 73%
Rainfall 0.00 in
Snow Depth Not available.
6:16 AM 7:55 PM
Waning Crescent, 1% visible
METAR KCOU 251154Z 14006KT 10SM CLR 13/07 A2962 RMK AO2 SLP024 T01280072 10139 20117 55005

Get Severe Weather Alerts

Thanks for signing up!

Be on the lookout for a verification email in your inbox.

You'll start receiving the daily forecast at 8 AM.

×

10-Day Weather Forecast

Almanac

Astronomy

Apr. 25, 2017 Rise Set
Actual Time
Civil Twilight
Nautical Twilight
Astronomical Twilight
Moon
Length of Visible Light
Length of Day
Tomorrow will be .
, % of the Moon is Illuminated

Today's Extremes

State Highs State Lows

Community

WunderPhotos

WunderBlog® & News

Nearby

Air Quality

  Air Quality AQ Index Pollutant
Not available.

Snow Depth

Station Depth Elevation

Earthquake Activity

City Distance Mag. Time & Date
Minimum magnitude displayed is 2.5.

Coastal Water Temperatures

Place Temperature

Stations

Nearby Weather Stations

Station Location Temp. Windchill Dew Point Humidity Wind Precip. Elev Updated Type
                   

Watches & Warnings

There are currently no watches in effect.